Regional Weather Roundup
Issued by NWS Wakefield, VA

Current Version | Previous Version | Text Only | Print | Product List | Glossary On
Versions: 1 2 3 4 5 6 7 8 9 10 11 12 13 14 15 16 17 18 19 20 21 22 23 24 25 26 27 28 29 30 31 32 33 34 35 36 37 38 39 40 41 42 43 44 45 46 47 48 49 50
033
ASUS41 KAKQ 210915
RWRAKQ

REGIONAL WEATHER ROUNDUP
NATIONAL WEATHER SERVICE WAKEFIELD VA
500 AM EDT MON AUG 21 2017

Note: "fair" indicates few or no clouds below 12,000 feet with no
significant weather and/or obstructions to visibility. * = Denotes
station may not report precipitation (e.g., rain,snow,etc.),
thunder or fog.

VAZ042-051-052>054-056-211000-
NORTHERN VIRGINIA

CITY           SKY/WX    TMP DP  RH WIND       PRES   REMARKS
WASH NATIONAL  CLOUDY    76  72  87 S3        30.19R
DULLES         MOCLDY    70  69  97 CALM      30.19R
FORT BELVOIR   PTCLDY    70  69  95 CALM      30.18R
QUANTICO       CLOUDY    74  72  93 NW5       30.19R
FREDERICKSBRG* MOCLDY    71  71 100 CALM      30.18R
STAFFORD*      LGT RAIN  67  67 100 CALM      30.22S
WARRENTON      CLOUDY    68  65  88 CALM      30.19R
CULPEPER*      CLEAR     69  69 100 CALM      30.19S
MANASSAS*      CLEAR     69  68  96 CALM      30.19S
LEESBURG*      CLOUDY    70  70 100 CALM      30.21R
WINCHESTER     CLEAR     64  63  94 CALM      30.19R
FRONT ROYAL*   SUNNY     68  68 100 CALM      30.18R
LURAY*         PTSUNNY   68  68 100 CALM      30.20S FOG
$$

VAZ048-049-060>072-079>083-211000-
CENTRAL AND SOUTH CENTRAL VIRGINIA

CITY           SKY/WX    TMP DP  RH WIND       PRES   REMARKS
RICHMOND       PTCLDY    72  72 100 CALM      30.18R
CHESTERFIELD*  PTSUNNY   72  70  93 CALM      30.19R
PETERSBURG*    FOG       70  70 100 CALM      30.18S VSB 1/4
HANOVER        PTCLDY    70  67  90 CALM      30.19S
TAPPAHANNOCK*  PTCLDY   N/A N/A N/A CALM      30.19S
QUINTON*       FAIR      70  70 100 CALM      30.18R
CHARLOTTSVILLE PTCLDY    72  70  93 CALM      30.20R
GORDONSVILLE*  CLOUDY    69  69 100 CALM      30.19R
ORANGE*        CLOUDY    68  68 100 CALM      30.20R FOG
LOUISA*        CLOUDY    68  66  94 CALM      30.19S FOG
BUMPASS*       FAIR      69  69 100 CALM      30.19R
FARMVILLE*     PTCLDY    70  68  95 CALM      30.18R FOG
CREWE*         FAIR      71  66  86 CALM      30.19R
FORT PICKETT*    N/A    N/A N/A N/A CALM      30.19R VSB 1
CHASE CITY*    FAIR      71  71  99 CALM      30.19R
CLARKSVILLE*   FAIR      70  70 100 CALM      30.18S
SOUTH HILL*    CLEAR     70  70 100 CALM      30.24R
LAWRENCEVILLE* CLOUDY    72  71  97 CALM      30.18S VSB<1/4
EMPORIA*       FOG       72  72 100 CALM      30.19S VSB 1/4
$$

VAZ088>098-211000-
SOUTHEAST VIRGINIA

CITY           SKY/WX    TMP DP  RH WIND       PRES   REMARKS
NORFOLK        CLEAR     77  75  93 S3        30.17F
VIRGINIA BEACH CLEAR     72  70  93 CALM      30.16F
NORFOLK NAVAL  CLEAR     76  73  91 CALM      30.19S
WEST POINT*    CLEAR     72  71  96 CALM      30.19S
SALUDA*        FAIR      72  72 100 CALM      30.18S
NEWPORT NEWS   CLEAR     72  71  97 CALM      30.18R FOG
LANGLEY AFB    CLEAR     75  75  99 SE3       30.17S
FORT EUSTIS    CLEAR     75  72  91 CALM      30.15S
WILLIAMSBURG*  CLEAR     75  75 100 CALM      30.19R
HR EXEC AP*      N/A     70  64  83 CALM      30.15F VSB 1/2
FRANKLIN*      CLOUDY    72  71  96 CALM      30.18S
US460-WAKEFLD  MOCLDY    73  73 100 CALM      30.18S FOG
$$

VAZ020-022-025-037-045-211000-
WEST CENTRAL AND SOUTHWEST VIRGINIA

CITY           SKY/WX    TMP DP  RH WIND       PRES   REMARKS
STAUNTON*      CLEAR     65  64  97 CALM      30.24S
WAYNESBORO*    CLOUDY    67  67 100 CALM      30.23S
HOT SPRINGS VA MOCLDY    68  63  83 CALM      30.35S
LYNCHBURG      CLEAR     69  68  96 CALM      30.21R
DANVILLE       CLEAR     69  69 100 E3        30.19R
SOUTH BOSTON*  FAIR      70  68  95 CALM      30.18S
MARTINSVILLE   MOCLDY    66  66  97 CALM      30.23R FOG
ROANOKE        PTCLDY    69  67  93 CALM      30.24R
BLACKSBURG     PTCLDY    66  66  98 CALM      30.29S
DUBLIN*        CLEAR     66  66 100 CALM      30.28R
MARION*        PTCLDY    65  53  64 CALM      30.31R HAZE
HILLSVILLE*    CLEAR     67  62  85 CALM      30.29R
RICHLANDS*     FAIR      72  58  62 S5        30.28S
WISE*          CLOUDY    70  61  73 S3        30.29R
ABINGDON*      CLEAR     70  68  93 CALM      30.25S
$$

MDZ021>025-VAZ099-100-211000-
SOUTHERN MARYLAND AND THE DELMARVA PENINSULA

CITY           SKY/WX    TMP DP  RH WIND       PRES   REMARKS
PATUXENT RIVER MOCLDY    69  69 100 CALM      30.18R
BAY BRIDGE APT CLOUDY    73  68  83 CALM      30.18S
LEONARDTOWN    PTCLDY    70  68  94 CALM      30.20S
DOVER          CLEAR     66  66 100 CALM      30.18R
GEORGETOWN     CLEAR     66  63  90 CALM      30.20R
EASTON         PTCLDY    70  65  85 CALM      30.22S
CAMBRIDGE      PTCLDY    66  64  94 CALM      30.19R
SALISBURY      CLEAR     65  65 100 CALM      30.19R
OCEAN CITY     PTCLDY    66  66 100 CALM      30.20S FOG
WALLOPS ISLAND CLEAR     69  69 100 CALM      30.18F
ACCOMACK*      CLEAR     68  67  98 CALM      30.18S FOG
$$

NCZ012>017-030>032-211000-
NORTH CENTRAL AND EASTERN NORTH CAROLINA

CITY           SKY/WX    TMP DP  RH WIND       PRES   REMARKS
ROANOKE RAPIDS FOG       70  70 100 CALM      30.18R VSB 1/4
RALEIGH        PTCLDY    73  71  93 CALM      30.18S
ELIZABETH CITY PTCLDY    76  76 100 NE7       30.18R
AHOSKIE*       NOT AVBL
EDENTON*       CLOUDY    74  72  94 CALM      30.18R
CURRITUCK*     PTCLDY    72  71  96 CALM      30.18S
KILL DEVIL HLS CLEAR     76  76 100 CALM      30.17R FOG
MANTEO         CLOUDY    75  75  99 CALM      30.18R
CAPE HATTERAS  CLOUDY    78  78 100 E3        30.16R
TARBORO*       NOT AVBL
GOLDSBORO      CLEAR     75  72  92 CALM      30.17R FOG
WASHINGTON     FOG       71  71  98 CALM      30.17R VSB 1/2
GREENVILLE     FOG       72  72 100 CALM      30.18R VSB 1/2
NEW BERN       FOG       72  72 100 CALM      30.17S VSB 1/4
WILMINGTON     CLOUDY    76  75  97 CALM      30.14S
$$

VAZ048-211000-
ELSEWHERE

CITY           SKY/WX    TMP DP  RH WIND       PRES   REMARKS
HARRISBURG PA  PTCLDY    67  65  93 E3        30.19R
BALTIMORE      PTCLDY    68  67  96 CALM      30.18S
ANNAPOLIS      CLOUDY    75  75 100 CALM      30.17S
ANDREWS AFB    MOCLDY    71  67  89 CALM      30.18R
PHILADELPHIA   MOCLDY    69  63  81 CALM      30.19S
HENDERSON NC   CLEAR     69  67  96 CALM      30.19S
GREENSBORO     CLOUDY    76  72  87 SW5       30.19R
ROCKY MOUNT    FOG       70  70 100 CALM      30.18R VSB 3/4
$$

VAZ100-211000-
MARINE

STATION/POSITION TIME  TEMP    WIND        PRES    WAVE   SWELL
                       AIR SEA DIR/SP/G            HT/PER HT/PER
                 (UTC) (F)     (DEG/KT/KT) (MB)    (FT/S) (FT/S)
BRANDYWINE LGT   0842   76     250/  5/  5 1022.5R
CAPE MAY NJ      0848   72 78  120/  2/  2 1021.7R
LEWES DE         0842   71 77  210/  4/  4 1021.9R
15NM E FENWICK I 0850   76 78  220/  4/  4 1022.8R   1/ 7   2/ 7
OCEAN-CITY-INLET 0842   74 79  270/  2/  2 1022.7R
WACHAPREAGUE VA  0842   74 84   20/  3/  4 1021.9F
THOMAS POINT MD  0900   77 81  150/  5/  6   N/A
GOOSES REEF MD   0900   79 80  170/  4/  6 1022.7
COVE POINT MD    0842   76     200/  4/  5 1022.6R
SOLOMONS ISLAND  0842   76 82   CALM  /  2   N/A
BISHOPS HEAD MD  0842   80 83  130/  4/  4 1022.0R
PINEY POINT MD   0842          220/  6/  7   N/A
POTOMAC MD       0900   80 82  190/  6/  8 1021.2    0
CAMBRIDGE MD     0842   72 83              1022.9R
LEWISETTA VA     0842   76 83  210/  5/  6 1021.7S
RAPPAHANNOCK LGT 0842          130/  5/  5 1022.5F
STINGRAY PT      0900   80 82  200/  6/  8 1022.2    0
YORK RVR RNG VA  0842   80     160/  7/  8 1022.2R
YORKTOWN VA      0842   77 83  160/  3/  4 1021.5R
JAMESTOWN VA     0900      85  160/  8/ 10   N/A     0
DOMINION TERM VA 0842   79     130/  7/  8 1021.8S
KIPTOPEKE VA     0842      81  120/  3/  3   N/A
CHES BAY BRIDGE  0842   78 81  160/  4/  7 1021.6F
CAPE HENRY VA    0842   77     140/  5/  5   N/A
WILLOUBY STN VA  0842   78     130/  7/  8 1021.8S
S CRANEY ISL VA  0842   77     140/  5/  6 1021.5F
CAPE HENRY BUOY  0900      80                N/A     2/ 8
1ST LANDING BUOY 0900   78 80              1021.7    1/ 4
64NM E OF VA BCH 0850   78 79   60/  8/  8 1022.2F   2/ 8   2/ 8
DUCK PIER NC     0842   78 78   40/  7/  7 1021.4R
44100 DUCK FRF   0805      81                N/A     2/ 9
44056 DUCK FRF   0900      79                N/A     2/ 8
OREGON INLET NC  0842   77 79   40/  4/  6 1021.6R
HATTERAS NC      0842   79 78  100/  2/  2 1021.2R
DIAMOND SHLS NC  0850   82 85   30/  8/ 10 1021.1R   2/ 8   2/ 8
CAPE LOOKOUT NC  0900   81      30/  5/  6 1020.7S
$$




USA.gov is the U.S. government's official web portal to all federal, state and local government web resources and services.